This is the latest recevied weather packets stored in our database for station/object DL5DI-H. If no packets are shown the sender has not sent any weather packets the latest 10 day(s).
| Time | Temp. | Humidity | Pressure | Rain* | Wind** | Luminosity | Snow |
|---|---|---|---|---|---|---|---|
| 1777731604 | 27.78° C | 38% | 1017.4 hPa | 0 mm | - | - | - |
| 1777731001 | 28.33° C | 37% | 1017.5 hPa | 0 mm | - | - | - |
| 1777729801 | 28.33° C | 38% | 1017.8 hPa | 0 mm | - | - | - |
| 1777729205 | 27.78° C | 38% | 1017.9 hPa | 0 mm | - | - | - |
| 1777728604 | 27.78° C | 39% | 1018.1 hPa | 0 mm | - | - | - |
| 1777728005 | 27.22° C | 39% | 1018.1 hPa | 0 mm | - | - | - |
| 1777727404 | 26.67° C | 39% | 1018.3 hPa | 0 mm | - | - | - |
| 1777726805 | 26.67° C | 40% | 1018.4 hPa | 0 mm | - | - | - |
| 1777726205 | 26.67° C | 40% | 1018.6 hPa | 0 mm | - | - | - |
| 1777725601 | 26.67° C | 40% | 1018.7 hPa | 0 mm | - | - | - |
| 1777725005 | 26.67° C | 40% | 1018.7 hPa | 0 mm | - | - | - |
| 1777724402 | 26.67° C | 42% | 1018.9 hPa | 0 mm | - | - | - |
| 1777723801 | 26.11° C | 42% | 1019 hPa | 0 mm | - | - | - |
| 1777723205 | 25.56° C | 43% | 1019.1 hPa | 0 mm | - | - | - |
| 1777722005 | 25° C | 44% | 1019.4 hPa | 0 mm | - | - | - |
| 1777721404 | 25° C | 44% | 1019.6 hPa | 0 mm | - | - | - |
| 1777720802 | 24.44° C | 44% | 1019.7 hPa | 0 mm | - | - | - |
| 1777720202 | 23.89° C | 45% | 1019.8 hPa | 0 mm | - | - | - |
| 1777719601 | 23.33° C | 47% | 1019.9 hPa | 0 mm | - | - | - |
| 1777719004 | 22.78° C | 48% | 1020 hPa | 0 mm | - | - | - |
| 1777718401 | 22.22° C | 49% | 1020.1 hPa | 0 mm | - | - | - |
| 1777717805 | 21.67° C | 50% | 1020.3 hPa | 0 mm | - | - | - |
| 1777717201 | 21.11° C | 52% | 1020.3 hPa | 0 mm | - | - | - |
| 1777716601 | 20° C | 54% | 1020.5 hPa | 0 mm | - | - | - |
| 1777716005 | 19.44° C | 58% | 1020.6 hPa | 0 mm | - | - | - |
* Rain latest hour (hover to see other rain measurements)
** Current wind speed in m/s (hover to see current wind gust speed)